Location: Unspecified
(47.0333°N, 0.0000°E)
Time: 03:05:05
(UTC+00:00)

Tiangong 2 - Visible Passes

Search period start: 26 June 2019 00:00
Search period end: 06 July 2019 00:00
Orbit: 376 x 388 km, 42.8° (Epoch: 25 June)

Date Brightness Start Highest point End Pass type
(mag) Time Alt. Az. Time Alt. Az. Time Alt. Az.
26 Jun 3.5 03:14:46 10° S 03:16:12 13° SSE 03:17:39 10° SE visible
28 Jun 2.9 02:50:41 13° SSW 02:52:12 18° SSE 02:54:26 10° ESE visible
29 Jun 3.6 01:52:59 11° SE 01:52:59 11° SE 01:53:33 10° SE visible
29 Jun 2.1 03:25:29 10° SW 03:28:19 30° SSE 03:31:09 10° ESE visible
30 Jun 2.4 02:27:25 21° S 02:28:14 24° SSE 02:30:51 10° ESE visible
01 Jul 3.5 01:29:43 13° ESE 01:29:43 13° ESE 01:30:21 10° ESE visible
01 Jul 1.8 03:01:52 13° WSW 03:04:24 35° S 03:07:19 10° ESE visible
02 Jul 2.0 02:04:11 30° S 02:04:16 30° SSE 02:07:05 10° ESE visible
03 Jul 3.7 01:06:32 11° ESE 01:06:32 11° ESE 01:06:45 10° ESE visible
03 Jul 1.6 02:38:42 19° WSW 02:40:28 37° S 02:43:25 10° ESE visible
04 Jul 2.2 01:41:08 29° SE 01:41:08 29° SE 01:43:14 10° ESE visible
04 Jul 1.9 03:13:50 10° WSW 03:16:40 31° S 03:19:31 10° SE visible
05 Jul 1.6 02:15:54 32° SSW 02:16:31 36° S 02:19:27 10° ESE visible
